Hourly Data Report for December 08, 2006

TORONTO CITY
ONTARIO

43°40'00.000" N
79°24'00.000" W
112.50 m
6158355
71508
XTO

Download Data

Hourly Data (December 2006)
Hourly Data Report for December 8, 2006
TIME
LST
Temp Definition
°C
Dew Point Definition
°C
Rel Hum Definition
%
Precip. Amount Definition
mm

Wind Dir Definition
10's deg

Wind Spd Definition
km/h
Visibility Definition
km
Stn Press Definition
kPa
Hmdx Definition


Wind Chill Definition


Weather Definition


00:00 -10.9 -15.8 67   LegendMM LegendMM   101.20     LegendNANA
01:00 -10.4 -15.0 69   LegendMM LegendMM   101.21     LegendNANA
02:00 -10.3 -14.6 71   LegendMM LegendMM   101.23     LegendNANA
03:00 -10.0 -14.0 72   LegendMM LegendMM   101.25     LegendNANA
04:00 -10.1 -13.7 75   LegendMM LegendMM   101.25     LegendNANA
05:00 -9.9 -13.6 74   LegendMM LegendMM   101.26     LegendNANA
06:00 -9.8 -13.6 74   LegendMM LegendMM   101.25     LegendNANA
07:00 -9.9 -13.2 77   LegendMM LegendMM   101.27     LegendNANA
08:00 -9.1 -12.6 76   LegendMM LegendMM   101.30     LegendNANA
09:00 -7.3 -11.3 73   LegendMM LegendMM   101.37     LegendNANA
10:00 -5.4 -11.0 65   LegendMM LegendMM   101.35     LegendNANA
11:00 -3.8 -10.5 60   LegendMM LegendMM   101.36     LegendNANA
12:00 -2.5 -9.9 57   LegendMM LegendMM   101.31     LegendNANA
13:00 -2.5 -9.0 61   LegendMM LegendMM   101.25     LegendNANA
14:00 -2.0 -7.7 65   LegendMM LegendMM   101.19     LegendNANA
15:00 -0.9 -8.0 59   LegendMM LegendMM   101.14     LegendNANA
16:00 -1.9 -7.4 66   LegendMM LegendMM   101.13     LegendNANA
17:00 -3.1 -9.6 61   LegendMM LegendMM   101.17     LegendNANA
18:00 -3.9 -9.9 63   LegendMM LegendMM   101.14     LegendNANA
19:00 -4.1 -9.8 64   LegendMM LegendMM   101.09     LegendNANA
20:00 -3.6 -9.2 65   LegendMM LegendMM   101.02     LegendNANA
21:00 -3.0 -8.8 64   LegendMM LegendMM   100.97     LegendNANA
22:00 -2.8 -9.3 61   LegendMM LegendMM   100.88     LegendNANA
23:00 -2.6 -10.9 53   LegendMM LegendMM   100.81     LegendNANA

Notes on Data Quality.

Legend

  • E = Estimated
  • M = Missing
  • NA = Not Available*
  • [empty] = Indicates an unobserved value
Date modified: